Tracking 19199 objects as of 25-Jun-2018
HD Live streaming from Space Station
objects crossing your sky now

KAZEOSAT 2

Track KAZEOSAT 2 now!
10-day predictions
KAZEOSAT 2 is classified as:


NORAD ID: 40010
Int'l Code: 2014-033A
Perigee: 618.1 km
Apogee: 641.8 km
Inclination: 97.9 °
Period: 97.2 minutes
Semi major axis: 7000 km
RCS: Unknown
Launch date: June 19, 2014
Source: Kazakhstan (KAZ)
Launch site: Orenburg, Russia (OREN)
aabbcc
Your satellite tracking list
Your tracking list is empty




NASA's NSSDC Master Catalog

Two Line Element Set (TLE):
1 40010U 14033A   18176.14044946  .00000016  00000-0  85899-5 0  9992
2 40010  97.8677  77.1026 0016977 136.7182 223.5379 14.82063436217189
Source of the keplerian elements: AFSPC